ATLAS 5 CENTAUR DEB, 44007

Orbit data source: Space-Track

ATLAS 5 CENTAUR DEB, 44007 is space debris in HEO originally from a launch on Wed, 17 Sep 2014 UTC launched from the Air Force Eastern Test Range (AFETR). Debris objects in space refer to the collection of defunct objects orbiting the Earth. Examples of debris include non-operational satellites, rocket bodies, and fragments generated from explosions, collisions, or faulty payload assembly.

Loading next visibility...
Identifier
44007, 2014-055BN
Orbit
HEO
Country
Flag of USUS
Related business
Flag of USUnited Launch Alliance/Lockheed Martin (US)
Manufacturer
Unknown
Mission
Spacecraft
Bus & Motor
Unknown
Mass
Unknown
Launch date (UTC)
2014-09-17 (11 years ago)
Launch vehicle
Unknown
Launch site
Air Force Eastern Test Range (AFETR)
Object type
Payload
Rocket body
Debris
Shape & HBR
Unknown shape, 1.1 m
Radar Cross Section
Small (<0.1 m²)

Expand to show TLE details & history
Last TLE update: 6 days ago

TLE from 6 days ago
0 ATLAS 5 CENTAUR DEB
1 44007U 14055BN  26067.63306531 -.00000012  00000-0  00000-0 0  9992
2 44007  19.0797 187.2372 4911506  89.0548 324.4683  1.76258976 47866
Epoch: 2026-03-08T15:11Z
TLE epoch observation values (Epoch: 2026-03-08T15:11:36.842Z)
Latitude
0.00012°
Longitude
152.94089°
Altitude
15,445.077 km
Speed
4.771 km/s
True Right ascension
12h 28m 43s
True Declination
0° 00' 00"
Sunlit
Object was in daylight at epoch
Visualization orbit readout
Latitude
Unknown
Longitude
Unknown
Altitude
Unknown
Speed
Unknown
Apparent Right ascension
Unknown
Apparent Declination
Unknown
Sunlit
N/A
Visualization observer readout
Local Sidereal Time
09:50:58
Azimuth
Unknown
Elevation
Unknown
Doppler factor
Unknown
Orbital elements
Apogee altitude
36,792.168 km
Perigee altitude
8,353.563 km
Semi-major axis
28,951.003 km
Eccentricity
0.49115
Inclination
19.0797°
RAAN
187.2372°
Arg. of periapsis
89.0548°
True anomaly
270.82166°
Mean anomaly
324.4683°
Eccentric anomaly
300.12946°
Mean motion
0.4406 °/min
Orbital period
817.06 mins
BSTAR
0
Loading maneuver chart data...
Computing Atmospheric mass density...

Documentation

Showing up to 5 results
|